ECMWFFLT2_850_spd_000.txt.gz
Wind_Speed
14 13 11 10 10 9 9 10 10 10 11 10 9 8 8 7 6 5 4 4 4 4 5 5 6 7 8 10 10 11 12 13 13 14 15 16 16 17 18 18 16 15 15 16 16 16 16 15 15 14 14 13
16 14 13 12 11 10 10 10 10 10 11 11 11 10 9 8 7 6 6 5 5 5 6 6 7 8 9 10 11 12 12 14 14 15 16 17 18 18 18 17 16 16 16 16 16 17 17 15 15 15 14 14
17 16 15 14 13 12 12 12 11 11 11 11 11 11 10 10 9 8 7 6 6 7 7 7 8 9 10 12 12 13 13 14 15 15 17 18 19 19 18 16 15 16 16 16 16 17 16 15 15 15 14 14
19 18 17 16 15 14 14 14 13 13 12 11 11 11 11 10 10 9 8 8 8 8 9 8 9 10 11 13 14 14 15 16 15 15 17 18 18 18 16 14 14 15 15 15 16 16 15 15 15 15 15 14
20 19 19 18 17 17 17 16 15 15 14 13 12 12 12 11 11 10 10 10 9 10 10 8 9 11 12 13 15 16 17 16 16 15 17 18 18 18 15 14 14 15 15 15 16 15 15 15 15 15 15 14
22 21 21 21 20 19 19 18 17 17 16 15 14 13 13 12 11 11 11 11 11 11 11 9 10 12 13 14 16 17 17 16 16 16 17 18 19 18 15 14 15 15 15 16 16 16 16 16 16 16 16 15
23 23 23 23 23 22 22 21 20 19 18 17 16 15 14 13 12 12 12 12 12 13 12 11 13 14 15 16 18 19 18 16 16 17 18 18 19 17 15 15 16 16 16 16 16 16 17 17 17 17 17 16
25 25 25 25 25 25 24 23 22 21 21 20 18 17 15 14 14 14 14 14 14 14 14 14 15 16 17 18 19 19 17 16 17 18 18 18 18 17 16 16 16 16 16 16 17 17 17 17 18 17 17 16
27 27 27 28 27 27 27 26 25 24 23 22 21 20 18 16 16 16 16 16 16 16 16 16 16 17 18 20 20 18 17 17 18 19 18 18 17 17 16 16 16 16 16 16 17 17 17 18 18 17 16 16
28 28 29 29 29 29 29 29 29 27 26 25 24 22 20 19 18 18 18 18 18 17 17 17 18 18 19 20 20 19 19 19 19 19 19 18 18 17 17 16 16 16 16 17 17 17 17 18 18 17 16 16
31 30 30 30 31 32 32 32 31 31 30 28 26 24 23 22 21 20 20 20 19 19 19 18 19 19 19 20 20 20 20 20 20 20 20 19 18 18 17 17 16 16 16 17 17 17 17 18 18 16 16 16
33 32 32 32 33 34 34 34 34 34 33 31 29 27 26 25 24 23 22 22 21 20 20 20 20 20 20 21 21 21 21 21 21 20 20 20 19 19 18 17 17 17 17 17 17 17 18 18 18 17 16 16
35 34 33 33 34 34 35 36 35 36 35 34 32 30 28 27 26 25 24 23 22 22 22 21 21 22 22 22 22 22 22 22 22 21 21 20 20 19 19 18 18 18 18 17 17 18 18 19 18 17 17 17
36 36 36 35 34 34 35 35 36 37 37 37 36 34 32 30 29 27 25 24 24 23 23 22 23 23 23 23 23 23 23 23 22 22 21 21 21 20 20 19 19 18 18 17 17 18 18 20 19 18 17 17
37 38 37 36 35 35 35 35 36 37 38 38 38 37 35 33 31 29 28 26 25 25 24 24 24 24 24 24 24 24 24 24 24 23 22 22 21 21 21 20 20 18 18 18 18 18 19 20 20 19 18 18
38 39 38 38 37 36 35 35 37 37 37 38 38 39 38 36 34 32 30 28 27 27 26 25 25 25 26 25 25 25 24 25 25 24 23 23 22 22 22 21 20 19 18 18 18 18 19 20 20 19 19 18
38 39 39 39 39 37 37 37 37 37 37 37 38 39 40 39 36 34 32 31 29 28 27 27 27 27 27 26 26 26 26 26 27 26 25 24 23 23 22 22 21 20 19 19 19 19 19 19 19 19 19 19
36 37 38 38 38 38 38 38 38 38 37 38 39 40 40 40 39 37 35 33 31 30 29 29 28 28 28 27 27 27 28 28 28 27 26 25 24 23 23 23 22 21 20 20 19 19 19 19 20 20 20 20
32 33 34 35 36 37 37 38 38 38 38 39 40 40 41 40 40 39 37 35 33 32 31 31 30 30 29 29 29 29 29 30 30 28 27 26 25 24 24 23 23 22 21 21 20 19 19 20 20 20 20 20
31 32 32 33 34 35 37 38 39 39 39 40 41 41 41 41 41 40 39 38 36 34 33 32 32 32 30 30 31 31 31 32 32 30 29 27 26 26 25 24 24 23 22 21 20 20 20 20 20 20 20 21
31 32 31 32 33 34 35 36 37 37 39 40 41 41 42 41 41 41 41 39 38 36 35 34 34 33 32 32 33 33 33 33 33 32 30 29 28 27 26 26 25 24 23 22 21 20 20 21 21 21 21 21
29 29 29 29 29 30 31 32 33 34 36 37 39 40 41 41 41 41 41 40 39 38 37 36 35 34 34 34 34 34 34 34 34 34 32 31 29 29 28 27 26 25 24 24 23 22 21 21 21 21 21 21
25 24 24 24 25 25 26 25 26 28 30 32 34 36 38 40 40 40 40 40 39 38 38 37 36 36 35 36 36 36 36 35 36 36 35 32 30 30 29 28 27 26 26 26 25 23 22 22 22 22 21 21
24 22 21 21 22 23 23 23 24 26 27 29 30 32 34 36 37 38 38 38 39 38 38 38 37 37 37 37 38 39 38 37 37 37 36 33 31 31 30 29 28 27 27 27 26 25 24 23 22 22 22 22
22 22 23 23 22 22 23 24 26 27 27 28 29 30 31 32 33 35 36 37 37 38 38 37 37 38 38 38 39 40 40 38 37 37 36 33 32 32 31 30 29 28 27 28 27 26 24 23 23 24 23 21
18 19 21 23 24 24 25 26 27 28 28 29 30 30 31 31 32 32 33 35 36 36 37 36 37 37 38 38 39 40 40 39 38 38 37 35 34 33 32 31 29 28 27 27 27 26 26 24 21 21 20 18
22 20 20 21 23 25 26 27 28 29 29 29 29 30 31 31 31 31 31 32 34 35 35 35 35 36 37 38 38 39 41 41 39 39 38 36 35 34 33 32 30 29 27 27 26 24 24 21 18 19 17 14
26 23 21 20 20 22 24 26 27 29 29 29 30 31 31 31 30 30 31 31 33 34 34 33 33 33 35 36 37 39 40 41 40 39 38 37 35 35 34 33 31 29 27 27 25 20 17 16 17 16 13 10
26 24 22 20 19 19 20 21 23 25 27 29 32 33 32 31 30 30 30 30 32 33 34 34 32 33 35 36 37 39 40 41 40 39 38 36 35 35 34 32 30 29 28 27 26 22 20 17 13 11 13 16
28 26 25 24 23 22 22 21 21 21 24 27 29 30 30 29 29 29 29 29 30 32 34 35 34 35 35 36 37 38 40 41 41 40 38 36 35 34 33 31 31 31 29 28 27 26 25 22 18 18 20 20
32 30 29 29 28 28 28 26 25 23 23 25 26 27 28 28 28 28 28 28 29 30 32 34 35 36 36 37 38 38 40 41 41 40 38 36 35 33 32 33 33 31 30 30 29 26 25 25 25 25 23 20

ECMWFFLT2_850_spd_003.txt.gz
Wind_Speed
15 14 13 13 13 12 11 11 11 11 11 12 12 12 12 12 11 10 9 8 8 7 7 7 6 7 7 8 9 9 9 9 10 11 11 11 11 11 9 11 13 12 13 15 16 16 16 15 13 12 11 10
16 15 14 14 14 13 12 11 11 11 11 11 11 11 11 11 11 10 10 9 9 8 8 8 7 7 8 8 9 9 10 9 11 12 12 13 13 13 13 15 15 14 16 17 17 17 16 15 14 13 12 10
16 16 16 15 15 14 14 13 12 12 12 12 12 12 11 12 11 11 11 10 10 9 9 9 8 8 8 9 9 10 10 10 11 13 13 14 15 16 17 16 15 15 17 18 18 17 16 15 15 14 13 12
17 16 17 16 16 16 15 15 14 13 13 13 12 12 12 12 12 12 11 11 11 11 10 10 9 9 9 10 10 10 10 10 11 12 14 15 16 18 17 15 15 17 18 18 18 17 16 16 15 15 14 13
18 18 18 18 18 18 17 17 16 15 15 15 14 13 13 12 12 12 12 12 11 11 11 10 9 9 10 11 11 11 11 11 11 12 15 17 18 19 16 15 15 17 18 18 17 16 16 16 15 15 14 13
20 20 20 20 20 20 19 19 18 17 17 17 16 15 14 13 12 12 12 13 12 12 12 11 10 10 12 12 12 13 12 12 12 12 14 18 20 20 15 14 15 17 17 17 16 16 16 15 15 14 14 13
22 22 22 22 22 22 22 21 20 19 19 19 18 17 16 15 14 13 14 14 14 13 13 13 12 12 13 13 14 15 14 13 13 12 14 18 21 19 14 14 16 16 17 17 16 16 16 15 15 15 14 14
25 25 25 24 24 24 24 23 23 22 21 21 20 19 18 17 16 15 15 15 16 15 15 15 14 14 15 15 16 16 17 16 14 13 16 19 20 17 14 15 16 17 17 17 17 16 16 16 16 16 15 15
28 28 27 27 27 26 26 26 25 25 24 23 22 22 21 20 19 18 18 18 18 17 17 17 16 16 17 17 18 18 19 18 16 17 19 21 20 18 17 17 17 17 17 17 17 17 17 17 17 17 16 16
30 30 29 29 29 28 28 28 27 27 27 26 25 25 24 23 22 21 21 21 20 19 19 18 18 17 18 18 19 19 20 19 19 20 22 22 21 20 19 18 18 18 18 18 17 17 17 17 17 17 17 17
33 32 31 31 31 31 30 30 29 29 29 28 28 28 27 26 25 24 23 23 22 21 21 20 19 19 19 19 20 20 21 21 21 22 23 23 23 21 20 20 19 19 18 18 18 17 17 17 17 17 17 17
35 34 34 34 33 33 32 32 31 31 31 31 31 30 30 29 28 27 26 25 25 24 23 21 21 21 20 21 21 21 22 22 22 23 24 24 24 23 22 21 20 20 19 19 18 18 18 18 18 18 18 17
36 35 36 36 36 35 34 34 33 32 33 33 33 33 33 32 31 30 29 28 27 26 25 24 23 22 22 22 22 23 23 23 23 24 25 25 25 24 23 22 21 21 20 20 19 19 19 19 18 18 18 17
36 36 38 38 38 37 37 36 34 34 35 34 35 35 35 35 34 33 32 30 28 28 27 26 25 24 24 24 24 24 24 24 24 24 25 26 26 25 24 23 22 22 21 20 20 20 20 19 19 19 18 17
36 37 38 38 38 39 39 37 37 37 36 36 36 36 36 37 37 36 35 33 31 30 29 28 27 26 25 25 25 25 26 25 25 25 26 27 27 26 25 24 24 23 22 21 21 21 20 20 19 19 19 18
37 38 38 38 39 40 40 40 40 40 39 38 37 37 38 38 38 38 38 36 35 33 32 31 29 28 27 26 26 26 27 27 26 27 27 28 28 28 27 26 25 24 23 22 21 21 21 20 20 20 19 19
39 40 40 41 41 41 41 42 43 42 41 40 39 39 39 39 40 40 40 39 38 36 35 33 32 31 29 27 27 27 28 28 28 28 29 29 29 29 28 27 26 25 24 23 22 22 21 21 20 20 20 20
35 38 39 41 42 42 43 44 44 44 43 43 42 42 41 41 41 41 41 41 41 40 38 36 35 33 31 28 28 29 29 30 30 30 30 30 30 30 29 28 27 26 25 23 23 22 22 22 21 21 21 20
29 32 35 37 39 41 42 42 43 44 44 44 44 44 43 43 43 42 42 42 42 42 41 40 38 36 33 30 29 30 30 31 31 31 32 32 31 31 30 29 28 27 26 24 23 23 23 23 22 22 21 21
23 26 28 31 33 36 38 39 41 42 43 43 44 45 45 44 43 43 43 43 43 43 43 43 42 39 35 32 31 30 31 32 33 32 32 33 33 32 31 30 30 28 26 25 24 24 24 23 23 23 22 22
16 19 22 25 27 30 33 35 37 39 40 42 43 44 44 44 44 44 43 43 43 43 43 43 43 41 37 34 32 32 32 33 33 33 33 33 34 33 32 31 31 29 27 26 26 25 25 24 24 24 23 23
12 14 16 18 21 23 26 29 32 34 36 38 39 40 41 42 42 42 42 42 42 42 42 43 43 43 40 36 34 33 34 34 34 33 33 34 34 35 34 33 32 30 28 28 27 27 26 25 25 25 25 25
14 11 10 11 14 16 18 21 24 26 29 31 32 34 34 35 36 36 37 37 38 39 40 41 42 43 42 39 37 35 35 35 35 35 35 35 36 36 36 35 33 31 30 30 29 28 27 26 26 26 26 26
23 18 14 11 10 11 13 15 17 19 21 22 24 25 26 27 28 28 29 30 31 32 34 36 39 41 42 41 39 38 37 37 36 35 35 35 36 37 37 36 35 33 32 31 30 29 28 27 27 27 28 28
31 29 25 21 17 14 12 12 14 15 16 17 18 19 20 21 22 22 23 23 23 25 27 30 33 36 39 40 40 39 38 37 36 35 35 35 36 37 38 38 36 34 33 32 31 30 29 29 28 29 29 28
33 32 30 28 25 22 17 14 14 13 13 14 15 16 17 18 19 20 21 21 21 22 23 26 29 32 34 36 38 38 38 37 37 36 36 36 36 37 38 38 37 35 34 33 33 31 29 28 28 29 29 28
32 32 30 29 28 25 21 19 18 17 15 14 14 14 15 15 16 17 19 20 21 22 24 26 28 30 32 34 36 37 38 38 38 37 37 37 37 38 38 39 38 37 36 35 33 29 27 26 25 25 26 26
31 32 31 30 28 27 24 22 21 19 17 17 17 16 14 14 15 16 17 17 19 21 22 24 27 29 30 32 34 35 36 37 37 36 36 37 37 38 39 40 40 38 37 37 33 27 23 22 19 19 20 20
32 33 33 33 32 30 28 26 26 24 21 21 22 20 17 15 14 15 16 16 17 19 20 22 24 27 29 31 33 35 36 35 34 34 35 35 36 38 40 40 40 39 38 37 35 30 25 19 15 15 18 16
33 33 33 35 35 34 33 33 31 30 29 28 27 25 22 19 16 15 15 16 16 17 18 20 21 24 27 30 32 35 36 36 35 35 34 34 36 38 39 39 40 41 39 37 35 35 33 28 23 20 19 16
35 34 33 33 32 32 33 33 32 31 31 31 30 29 27 23 19 17 15 14 15 16 17 18 19 22 24 27 30 33 36 39 39 37 35 34 35 37 38 39 42 42 39 38 37 35 35 34 32 29 26 23

ECMWFFLT2_850_spd_006.txt.gz
Wind_Speed
20 21 19 19 19 19 19 19 18 17 16 16 16 16 17 17 16 16 15 14 14 14 14 13 13 13 14 13 13 14 14 14 14 13 13 12 13 13 13 14 13 12 10 7 9 11 8 5 6 7 8 8
21 22 20 20 20 20 20 19 19 18 16 16 17 16 16 16 16 16 15 15 14 15 15 14 13 14 14 14 14 14 14 14 13 13 12 12 12 12 13 14 12 11 9 7 10 12 10 9 8 9 9 9
22 22 21 20 21 21 20 20 20 19 17 17 17 17 16 15 14 15 15 15 15 15 15 14 13 14 14 14 14 14 14 13 13 13 12 12 12 12 13 13 11 10 9 9 12 12 11 11 11 10 10 10
23 22 22 21 22 22 21 21 21 21 19 17 17 17 17 15 13 14 15 15 16 16 15 14 13 13 14 15 14 14 14 14 13 13 13 13 12 13 14 12 10 9 8 11 14 13 12 13 12 11 11 11
24 24 23 23 23 23 23 23 22 22 20 19 18 17 17 16 15 15 15 15 16 16 16 15 14 13 14 15 15 14 14 14 14 13 13 13 13 13 13 11 11 9 10 14 15 14 14 13 13 12 12 12
25 25 24 24 25 25 25 25 24 24 23 22 20 19 19 18 17 16 16 16 16 16 16 16 15 14 14 15 16 15 14 14 14 14 13 14 14 14 14 12 10 10 12 15 15 15 14 14 14 13 13 12
26 26 26 27 27 27 27 27 27 26 25 24 22 21 20 20 19 18 17 17 17 17 17 16 15 14 14 15 16 16 15 15 14 14 14 14 14 16 16 12 9 11 14 16 15 15 14 14 13 13 13 12
28 28 28 28 29 29 29 29 29 28 28 26 25 23 22 22 21 19 19 19 19 18 18 18 17 15 16 17 17 17 17 17 16 15 14 15 17 19 15 10 10 12 15 16 16 15 14 14 13 13 13 13
30 30 30 30 31 31 31 31 30 30 30 28 27 26 24 24 23 21 21 21 20 21 20 20 19 18 19 20 19 19 18 19 19 17 16 17 20 20 16 13 14 14 16 17 17 16 16 15 14 14 13 13
34 33 32 32 33 33 33 32 32 32 31 30 30 28 27 26 25 23 24 23 23 23 22 22 21 20 21 21 21 20 20 20 19 19 19 20 21 22 20 18 17 17 17 18 18 17 16 16 15 15 14 14
37 36 35 35 35 35 35 35 35 34 33 32 32 31 30 29 27 27 26 26 25 25 24 23 23 22 22 22 22 22 22 22 21 21 21 22 23 23 22 21 20 19 19 18 18 18 17 17 16 16 16 16
42 40 38 38 38 37 37 37 37 37 35 35 34 33 32 31 30 30 29 28 27 26 26 26 25 24 23 23 23 24 24 23 23 23 23 23 24 23 23 22 21 21 20 20 19 19 18 18 17 17 17 17
43 44 43 41 41 40 40 40 40 38 37 38 37 35 35 34 33 32 31 30 29 29 28 28 27 26 25 25 25 25 26 25 25 25 25 25 25 25 24 24 23 22 22 21 21 20 19 19 18 18 18 18
34 41 45 46 44 43 43 43 43 41 41 41 39 38 37 36 36 35 34 33 32 31 31 30 30 29 28 27 27 26 27 27 27 27 26 26 26 26 25 25 24 23 23 23 22 22 21 20 19 19 19 18
24 29 36 43 46 47 47 47 46 45 45 44 42 41 41 39 38 37 36 36 35 34 33 33 32 32 31 30 29 28 28 28 28 28 27 27 26 26 26 25 26 25 24 24 24 23 22 21 21 20 20 19
19 22 25 31 37 43 48 49 49 49 48 47 46 45 44 43 42 41 40 39 38 37 36 36 35 34 34 32 31 29 29 29 29 29 29 28 28 27 27 27 27 27 26 26 25 24 23 22 22 21 21 21
17 19 22 24 28 33 38 43 47 49 50 50 49 49 48 46 45 44 43 42 41 40 39 39 38 37 36 35 33 31 31 31 31 31 30 30 30 29 29 29 29 28 27 28 27 25 24 24 23 23 22 22
17 18 20 21 24 26 30 34 37 42 46 48 50 50 50 49 48 48 46 45 45 43 43 42 41 40 39 37 36 34 33 33 32 32 33 32 32 31 31 31 30 29 28 29 28 27 26 25 25 24 24 23
18 17 18 20 21 22 25 28 30 33 37 41 44 46 48 50 50 49 49 48 48 47 46 45 44 43 42 40 39 37 36 35 34 34 34 34 33 33 33 32 32 31 30 30 30 29 28 27 27 26 25 24
24 19 17 17 19 20 21 23 25 28 30 33 35 38 41 45 47 48 49 49 50 50 49 48 48 46 45 43 42 40 39 38 37 36 35 35 34 34 34 34 34 33 31 31 31 30 30 29 28 27 26 26
26 25 22 18 17 17 19 20 21 22 24 27 29 32 34 37 39 41 43 45 47 49 49 50 50 49 49 47 44 43 42 41 40 38 37 36 35 35 36 35 35 34 33 32 32 31 31 30 30 29 28 27
23 24 24 23 22 18 15 16 18 19 21 22 24 26 29 32 33 34 35 38 41 43 45 47 48 49 50 49 47 46 45 44 43 41 39 38 37 36 37 37 36 35 34 33 33 33 32 32 31 30 30 29
23 21 22 22 24 23 19 16 13 14 16 18 20 22 24 26 29 31 32 33 35 37 39 42 44 46 48 49 48 48 49 48 47 45 43 41 39 38 37 37 37 36 35 34 34 34 34 33 33 32 31 31
28 25 23 22 22 22 22 20 18 15 12 12 14 17 19 21 23 25 28 31 32 33 35 38 40 42 44 45 46 49 51 52 51 49 46 43 40 38 38 38 38 38 37 36 35 35 35 34 34 33 33 32
32 30 28 25 22 21 20 21 20 18 17 16 14 13 14 16 18 19 22 25 28 31 32 34 36 39 41 43 45 48 50 52 52 50 47 44 42 40 39 39 40 39 38 36 36 36 36 37 36 35 33 33
31 31 30 28 26 23 20 19 19 19 19 18 17 16 15 15 15 15 17 19 22 26 29 31 33 36 39 41 42 45 47 49 50 50 49 47 45 43 41 40 40 40 38 37 38 36 32 31 33 35 36 35
29 29 29 27 26 26 23 20 19 18 19 20 19 19 18 18 17 16 16 16 18 21 24 27 30 34 36 37 39 41 43 46 48 49 50 50 48 45 42 41 41 41 38 38 37 31 25 21 21 27 33 36
30 28 28 26 25 27 26 23 21 19 19 20 20 20 20 20 20 19 18 17 18 19 20 22 25 29 32 34 36 38 40 43 46 47 49 50 49 47 44 43 44 42 38 39 37 30 25 19 17 19 22 26
32 29 27 26 26 26 25 23 21 20 19 19 18 18 19 19 20 20 19 18 18 20 20 19 20 23 28 30 32 35 38 41 43 45 46 48 48 48 46 44 44 42 39 41 41 36 26 17 17 19 16 16
33 29 25 23 23 23 22 21 20 20 21 20 18 17 16 16 17 18 18 17 16 18 20 21 20 20 23 26 29 31 34 37 40 42 44 45 47 48 47 45 44 44 41 41 43 42 35 28 24 19 17 17
32 28 26 23 21 20 19 19 19 19 20 20 20 19 17 15 14 14 15 15 15 16 17 20 21 21 21 22 25 28 30 34 37 40 41 43 44 46 46 45 46 46 44 42 43 44 42 42 39 29 23 21

ECMWFFLT2_850_spd_009.txt.gz
Wind_Speed
21 20 20 20 20 22 20 19 20 20 20 21 20 20 20 19 19 19 19 19 18 17 16 16 17 17 16 16 16 17 18 16 16 16 15 15 14 15 13 14 18 17 19 15 8 6 4 4 5 5 5 5
22 22 21 20 21 23 21 20 20 20 21 21 22 21 22 22 22 22 20 19 18 18 17 16 17 18 17 16 16 16 17 17 17 18 17 17 16 18 17 16 19 18 21 17 11 8 5 5 6 5 6 6
23 23 22 22 22 23 23 22 21 20 21 22 22 22 23 23 23 23 22 21 19 19 19 17 17 19 18 16 16 16 17 18 18 19 18 17 17 18 18 16 16 18 20 14 11 9 4 5 6 5 6 6
24 24 23 23 23 24 24 24 23 22 22 23 23 24 23 23 24 25 24 23 19 19 20 19 18 19 19 17 17 17 17 19 18 18 17 16 17 17 17 18 19 20 16 12 13 10 4 5 6 5 6 7
25 26 25 24 25 25 26 25 25 25 24 24 25 26 25 25 27 25 22 21 19 19 21 22 20 18 18 18 17 17 17 18 18 17 16 16 16 16 18 21 25 23 14 11 14 10 4 5 5 5 6 8
28 27 26 26 26 26 27 27 27 26 24 23 25 27 28 28 26 22 18 17 18 20 22 23 22 19 18 19 18 17 18 18 18 18 17 17 17 17 20 23 24 22 14 12 13 9 7 7 7 6 7 8
31 30 28 27 27 28 28 29 29 26 23 22 22 25 30 28 21 20 20 19 19 21 23 23 23 21 18 19 19 18 18 19 18 18 18 18 18 17 20 22 19 16 14 14 12 9 8 8 9 9 9 10
29 32 31 27 25 29 30 30 32 28 24 23 22 23 26 24 22 23 23 22 22 24 25 24 23 22 20 20 21 21 19 19 19 19 19 18 18 19 22 23 18 14 13 13 11 10 9 10 11 11 11 11
28 28 28 27 24 26 29 30 32 31 27 24 24 25 23 23 25 24 21 21 22 25 27 26 24 23 22 22 23 24 23 20 18 18 21 21 21 23 24 22 18 15 14 13 12 11 11 12 12 12 12 12
29 26 24 26 25 24 26 27 28 32 32 28 27 27 24 24 25 22 21 23 21 23 30 28 25 24 23 24 25 26 26 24 22 20 20 21 24 26 25 23 20 17 15 15 14 13 13 14 13 13 13 13
26 27 25 25 25 24 25 26 26 28 31 31 29 26 24 25 26 23 22 25 22 23 31 30 27 26 25 26 26 26 27 26 26 25 23 22 25 27 26 25 24 21 19 17 16 16 16 15 15 15 15 14
18 22 25 26 26 26 26 27 27 26 28 29 27 22 22 26 27 26 26 26 23 24 32 33 30 28 26 27 27 27 27 27 27 28 29 28 28 28 28 27 26 24 22 19 18 18 18 17 17 17 16 16
13 16 19 22 25 26 27 29 27 25 26 27 26 24 24 26 26 27 28 27 24 28 35 35 33 31 29 29 29 29 29 28 28 29 30 31 31 31 30 29 28 26 23 21 20 20 20 19 18 18 18 18
12 13 15 16 18 22 26 29 29 26 25 24 25 27 28 28 25 25 27 27 29 35 38 37 37 35 32 32 32 30 30 30 30 30 30 31 31 31 31 30 29 27 25 24 22 21 22 21 20 20 20 19
11 13 15 15 15 17 20 24 27 28 28 27 26 27 30 29 28 32 36 35 37 41 40 39 39 38 37 36 34 32 32 32 31 31 31 32 31 30 30 30 30 29 28 26 24 23 23 22 22 21 21 20
15 12 13 16 17 16 17 19 22 25 27 29 29 29 30 30 29 36 45 44 42 42 42 42 42 41 41 39 37 35 34 34 33 33 33 33 33 31 30 30 31 30 29 28 26 26 25 24 24 23 22 21
19 17 15 13 14 16 18 18 18 20 23 26 28 30 31 31 29 30 41 47 45 44 44 44 44 44 43 41 40 38 36 36 35 35 35 35 34 33 32 31 32 32 30 30 29 28 27 26 25 24 23 22
19 18 17 16 14 13 16 18 18 18 20 22 25 29 29 32 32 30 38 45 44 45 46 46 46 46 46 44 42 41 39 39 38 38 38 38 36 35 34 33 34 34 32 31 31 30 29 27 26 25 25 24
21 18 16 15 16 16 15 15 17 18 19 20 22 25 27 29 31 32 41 47 44 45 46 48 49 49 49 47 45 44 42 41 41 40 40 40 38 36 36 35 35 35 34 33 33 32 31 29 28 27 26 26
24 21 18 16 15 16 18 17 15 15 18 19 20 22 23 26 28 28 33 39 43 46 47 49 50 50 50 49 49 47 46 44 44 43 43 42 41 38 37 36 36 36 35 34 35 34 33 31 29 29 28 27
29 26 22 19 16 15 15 16 16 14 14 16 19 21 22 23 25 25 25 27 32 38 45 49 50 50 50 51 52 50 49 48 47 46 45 44 43 40 39 38 37 37 37 36 36 36 35 33 32 31 30 29
31 29 26 24 20 17 14 13 13 14 15 15 15 18 21 23 25 25 24 24 25 28 34 41 46 49 48 50 54 52 51 51 49 49 48 47 46 43 42 40 39 39 39 38 37 37 36 35 34 33 32 31
27 28 27 26 25 22 18 15 14 14 14 14 15 15 16 19 23 25 25 25 24 24 28 31 36 41 42 46 53 53 52 52 51 51 51 49 48 47 44 42 42 42 40 39 38 38 37 36 36 35 33 32
24 24 23 24 25 24 23 21 19 16 14 14 14 13 14 14 16 20 23 26 24 24 26 27 28 32 35 40 48 52 52 53 54 53 53 52 50 49 47 45 44 43 41 39 38 37 37 37 37 36 35 35
22 22 21 22 23 22 23 24 23 21 16 15 16 15 13 12 13 14 16 19 23 26 27 27 26 28 30 33 40 47 50 51 51 52 52 52 51 49 50 49 46 44 41 39 37 35 35 36 37 37 36 36
21 21 21 22 22 21 21 21 21 22 20 19 20 19 16 14 13 13 13 13 16 22 27 29 27 26 28 29 33 38 42 45 45 47 49 50 50 50 50 50 47 46 44 41 39 35 33 33 34 36 38 38
21 22 22 23 22 20 20 20 19 20 22 21 21 22 20 18 16 15 14 14 14 16 21 26 28 27 28 29 30 30 34 40 42 43 46 49 50 49 48 46 45 47 47 44 40 33 29 26 23 26 33 38
22 23 23 23 22 21 20 20 18 17 18 20 23 24 23 21 18 17 16 15 15 15 17 20 25 27 27 27 27 28 29 34 38 41 44 47 49 49 47 46 46 47 47 47 41 34 26 19 17 19 24 30
23 25 25 24 24 23 21 20 18 16 15 17 20 22 23 24 22 19 18 16 15 16 15 16 18 22 26 26 26 28 29 30 32 35 38 42 45 47 48 47 46 46 47 49 46 40 30 20 17 18 16 17
25 26 26 26 26 25 24 22 20 18 16 16 18 19 20 22 22 21 21 19 17 17 16 15 16 17 21 24 27 29 29 29 29 30 32 36 39 43 46 45 44 46 48 48 47 46 40 30 25 20 15 14
26 26 26 26 27 26 25 24 23 21 19 20 19 19 19 19 19 19 20 20 18 18 17 16 16 16 17 19 24 27 29 28 29 29 29 31 34 37 40 41 41 44 48 48 47 48 45 38 31 25 20 18

ECMWFFLT2_850_spd_012.txt.gz
Wind_Speed
19 18 18 17 16 17 17 16 17 19 19 17 17 19 18 18 20 20 20 20 18 17 17 17 17 17 17 18 18 17 18 17 17 17 15 16 15 15 15 14 15 18 21 21 18 8 4 7 8 9 10 11
21 19 19 18 17 18 18 17 17 20 20 18 19 20 19 19 21 22 21 20 18 18 18 18 17 18 19 19 18 18 18 18 18 17 17 18 16 17 16 15 20 22 22 22 21 14 8 8 9 10 11 11
21 21 21 20 20 19 19 19 19 20 20 20 21 21 21 22 23 24 23 21 20 20 19 19 18 18 20 20 18 18 18 19 20 19 18 20 18 17 16 19 24 24 24 24 24 20 14 12 12 11 12 12
19 20 21 21 21 21 21 21 21 22 21 21 24 23 23 23 24 25 25 24 23 22 21 21 21 19 20 20 19 19 20 20 20 20 20 20 18 18 18 20 25 24 25 26 28 25 18 17 15 14 14 13
17 18 19 20 20 21 21 22 23 24 23 23 24 25 26 26 26 26 27 27 26 25 23 23 23 21 21 20 19 20 21 21 20 20 20 20 20 21 22 22 25 26 25 25 28 25 20 20 17 16 16 15
17 18 19 19 20 21 22 23 25 25 25 25 25 26 27 28 27 28 28 29 29 28 25 25 26 23 21 21 20 20 20 21 22 23 23 22 22 22 24 26 28 28 26 26 27 23 20 19 17 17 17 16
15 18 20 20 21 21 21 23 26 27 27 27 27 27 28 29 28 28 29 30 30 30 27 27 28 27 24 22 21 21 22 22 24 25 24 23 23 22 23 28 31 30 28 27 28 23 19 17 16 16 16 17
14 13 16 19 20 21 20 20 23 26 29 29 29 28 28 30 29 28 29 30 29 29 29 29 29 29 28 22 22 24 25 26 25 23 23 22 23 23 25 30 32 32 32 30 31 25 15 14 16 15 15 16
14 15 15 15 17 20 21 21 21 22 26 29 30 29 29 31 31 30 30 29 28 28 28 28 30 31 32 27 26 29 27 27 27 25 24 24 24 26 28 32 32 32 34 32 32 25 14 14 15 14 15 15
11 15 17 17 16 17 20 21 23 23 22 24 28 30 29 29 32 33 31 29 29 30 30 29 30 32 36 33 29 31 30 28 28 28 28 27 27 27 29 31 28 26 29 29 26 19 13 14 13 13 14 14
7 10 13 16 18 18 18 19 23 25 24 23 24 28 30 29 30 31 31 31 31 32 33 33 32 32 36 37 32 32 33 31 28 28 28 29 29 29 30 31 27 24 24 23 20 15 13 15 14 13 13 13
6 5 7 10 14 18 20 21 21 24 26 26 25 26 28 30 31 31 30 31 33 34 35 35 34 33 35 37 36 34 35 34 31 29 28 28 30 31 30 30 28 25 24 22 19 16 15 16 15 14 14 13
11 7 8 8 10 13 16 20 22 23 25 28 28 27 27 30 31 31 32 33 33 35 36 36 35 35 35 37 37 37 38 36 33 32 29 28 29 30 31 30 28 27 26 24 22 19 18 17 16 15 15 15
20 17 12 11 11 12 13 15 19 22 25 26 28 29 28 31 32 32 34 35 34 36 37 37 37 36 36 37 38 39 39 38 37 34 32 30 29 30 30 30 29 28 27 26 25 23 21 19 18 17 17 16
22 22 20 17 14 13 14 15 16 19 22 25 27 28 28 29 32 33 35 36 35 37 38 38 38 37 38 39 38 39 39 39 39 38 36 33 32 31 30 29 29 29 29 28 27 26 24 22 20 19 19 18
24 22 21 21 20 17 15 16 18 19 21 23 25 27 28 28 30 32 34 36 35 35 35 37 38 37 38 41 41 40 39 39 39 39 39 37 35 33 32 31 31 31 30 30 29 28 27 25 24 22 21 21
28 26 23 21 20 20 19 18 17 19 21 23 25 26 28 29 29 30 32 35 36 36 35 34 37 38 39 42 43 41 40 39 39 39 39 40 39 37 36 35 34 33 31 31 30 30 29 28 26 24 23 23
31 30 28 25 22 20 20 19 18 18 18 20 24 26 28 28 30 30 30 33 36 38 37 34 36 40 41 42 43 42 41 41 40 40 40 41 41 40 39 38 36 35 33 32 31 31 31 30 28 27 26 25
30 30 31 30 27 24 20 20 19 18 18 17 19 23 27 28 29 31 30 31 35 37 38 36 34 37 39 40 43 43 42 42 42 41 41 42 42 42 40 39 38 37 35 33 33 32 32 31 30 29 29 27
27 28 30 30 30 28 24 21 18 17 18 18 17 18 22 27 29 30 29 29 33 36 38 38 36 35 36 38 41 43 43 43 43 43 43 43 44 44 43 41 40 39 37 36 35 34 33 33 32 31 30 29
26 25 27 27 28 28 28 24 20 17 17 19 18 17 17 21 26 29 30 28 29 33 37 39 38 35 35 37 40 42 44 45 45 45 45 45 46 46 45 43 42 41 39 38 37 36 36 35 34 33 32 31
24 23 24 25 24 24 25 25 23 20 20 21 20 18 17 18 21 24 30 31 28 29 34 38 40 37 35 35 39 42 44 45 46 46 46 47 48 47 47 45 44 43 42 40 39 38 37 37 36 34 33 32
21 22 24 24 22 21 22 23 22 22 22 22 21 19 20 21 22 21 25 31 33 30 30 33 38 40 37 34 36 39 42 45 46 47 48 48 49 48 48 47 46 44 43 41 40 40 39 38 37 36 35 34
21 22 23 22 21 21 21 20 19 21 22 22 20 20 22 25 25 23 22 26 31 34 34 33 34 37 39 37 35 36 40 44 46 48 48 48 49 49 48 47 46 45 43 41 39 38 38 37 37 36 36 35
23 23 22 21 21 22 22 20 19 19 19 19 20 22 24 26 26 26 24 23 25 30 35 37 37 36 38 39 37 36 38 41 45 46 48 49 49 49 49 48 47 46 42 40 38 36 35 35 35 35 35 36
23 22 22 22 24 24 24 22 20 19 19 20 22 24 26 24 25 27 26 25 25 25 28 33 37 39 40 40 38 36 35 37 42 45 46 48 49 50 50 50 49 48 45 43 43 39 34 31 31 33 34 35
24 24 24 25 26 26 28 27 24 23 23 23 24 24 25 24 23 25 26 26 26 26 26 26 30 34 38 41 41 39 35 33 36 42 44 46 49 49 49 49 49 49 50 48 44 39 35 34 32 28 33 38
26 26 26 26 27 27 29 29 28 27 25 25 24 22 22 23 22 23 24 24 25 27 27 27 27 29 31 35 39 42 41 36 33 37 41 43 46 48 48 48 49 49 51 50 46 41 35 32 29 27 35 42
27 27 27 27 28 28 28 29 29 29 27 24 23 22 21 20 19 21 22 22 23 25 26 27 28 28 27 28 32 39 45 43 38 35 38 41 42 46 49 48 48 48 49 51 52 48 38 28 26 32 36 34
27 27 28 28 29 29 29 30 30 30 29 26 24 23 24 24 24 23 23 22 22 22 24 26 27 28 28 28 28 33 40 44 43 38 36 39 40 43 47 48 45 45 48 50 51 52 48 39 37 38 31 25
27 28 29 29 30 31 30 32 32 30 29 28 26 24 25 27 29 29 28 26 22 21 22 24 26 27 28 29 29 30 35 40 43 42 39 38 39 39 42 45 45 46 47 49 50 51 51 47 42 37 33 30

ECMWFFLT2_850_spd_015.txt.gz
Wind_Speed
15 15 17 18 17 14 14 15 14 14 16 18 18 18 18 18 18 19 18 17 16 16 17 17 16 16 16 18 18 18 18 18 18 18 18 17 17 17 16 15 15 15 22 24 15 10 8 9 12 14 15 15
16 18 19 19 18 16 15 17 17 15 16 18 19 19 18 18 19 20 19 19 18 17 17 16 16 16 17 18 18 18 19 19 19 18 19 18 17 18 18 16 15 17 24 25 19 15 11 9 10 11 14 15
15 18 20 20 19 19 17 18 18 18 17 17 19 19 18 20 21 23 22 22 20 20 19 17 18 18 18 18 17 18 19 19 20 19 19 19 18 20 20 18 18 22 28 27 22 19 17 16 13 12 13 15
13 15 19 20 19 18 18 19 20 20 19 18 18 20 21 22 23 24 24 24 24 24 21 19 21 21 19 18 18 20 19 19 21 20 20 20 19 19 19 19 23 27 30 29 25 23 22 21 19 15 15 16
7 10 14 18 18 18 17 18 19 20 21 20 19 21 23 23 23 25 25 26 26 26 24 22 24 24 21 18 20 22 20 20 21 20 20 20 20 19 18 21 26 28 29 29 27 26 26 25 23 20 18 18
4 5 8 11 15 18 18 18 18 19 21 22 22 22 25 25 24 26 28 28 27 27 26 25 26 26 24 20 21 23 21 21 22 22 22 20 20 19 20 23 26 27 29 30 29 29 28 27 27 24 22 22
6 6 5 7 10 13 16 18 20 19 18 21 23 24 25 27 27 28 29 29 29 28 27 27 28 28 26 22 22 23 23 24 24 24 24 23 21 21 23 26 28 28 29 32 31 31 29 27 27 25 23 23
12 11 9 8 8 10 12 14 18 19 18 19 22 24 26 28 30 30 30 31 30 30 30 30 30 30 29 26 25 24 24 26 27 27 25 25 25 24 28 29 31 31 32 34 33 31 28 24 23 22 22 22
15 16 16 14 11 11 11 12 15 17 19 21 21 22 24 27 31 32 32 33 33 33 32 32 32 33 32 31 30 27 27 28 29 30 29 28 29 30 33 33 34 35 35 36 33 31 27 21 21 20 22 22
12 15 17 18 17 16 15 14 14 14 16 19 21 23 23 25 29 33 34 35 35 36 35 34 34 34 34 34 34 31 30 31 30 32 32 32 34 35 37 35 35 36 36 36 33 31 27 21 21 21 22 23
16 13 13 15 18 19 20 19 18 17 16 16 18 22 25 26 27 30 34 36 37 37 36 37 36 34 35 35 37 36 32 34 33 33 35 36 37 38 38 35 33 33 32 33 31 29 25 21 22 23 22 24
24 21 17 15 14 15 18 21 22 22 20 18 18 20 22 25 29 30 32 35 37 38 37 37 37 36 36 35 36 36 34 35 36 36 37 38 38 39 38 35 33 30 29 28 26 25 23 21 23 23 22 24
28 26 24 22 19 16 15 16 20 23 24 22 20 20 20 22 25 29 33 36 38 38 39 39 39 37 38 37 35 35 35 37 39 38 39 40 39 39 38 35 32 30 28 26 25 22 20 21 21 21 21 23
33 31 30 28 25 23 20 17 15 18 23 26 25 23 22 22 22 25 29 36 40 39 39 40 41 41 40 39 38 37 36 36 40 40 39 41 41 40 39 37 33 31 29 27 25 23 21 21 20 19 20 20
36 35 35 33 31 28 26 23 20 17 17 21 26 27 26 25 24 24 25 28 35 37 38 39 41 43 44 42 40 40 39 37 39 42 42 42 42 42 40 39 36 33 31 29 27 25 23 22 22 20 19 18
38 37 37 37 36 33 31 28 26 23 20 18 19 23 27 30 28 26 25 25 27 29 33 37 39 42 45 45 43 42 42 40 38 41 44 43 42 43 42 40 40 37 34 31 29 26 24 24 23 21 20 19
37 37 37 38 38 37 35 32 30 27 25 22 19 18 20 26 31 32 29 27 26 25 27 32 36 40 43 45 46 44 43 42 38 38 44 45 43 44 44 43 42 40 38 35 32 29 27 25 24 23 22 22
36 36 36 37 37 37 36 35 33 29 26 25 24 21 18 19 24 31 34 32 29 28 27 29 31 34 37 41 45 46 44 43 40 37 41 46 46 46 46 46 43 42 41 38 36 33 31 29 26 25 24 23
34 34 34 35 35 34 34 34 34 31 26 23 24 24 22 19 19 23 30 34 33 31 29 29 29 28 32 36 40 44 45 45 42 38 39 44 48 48 48 48 46 44 43 40 38 36 33 32 30 28 27 25
28 28 30 31 31 31 31 30 30 30 27 23 23 24 25 23 21 21 23 29 34 34 31 30 28 26 28 33 35 40 45 46 44 40 38 41 47 50 50 49 49 47 45 42 40 37 36 34 33 32 30 27
26 24 27 28 28 28 29 29 27 26 26 25 24 24 25 25 24 24 23 24 29 34 35 32 30 28 28 30 32 35 41 46 46 42 40 40 42 47 51 51 51 49 48 45 42 40 39 38 36 35 33 30
27 26 27 28 28 28 29 28 25 25 25 26 26 25 25 25 26 26 26 26 27 31 35 35 33 30 29 29 31 32 35 42 46 45 42 41 41 44 48 51 53 52 50 48 45 43 41 40 39 37 35 33
29 29 29 29 29 29 28 27 26 27 27 25 25 26 26 25 26 26 27 28 28 30 33 35 36 34 31 29 31 31 31 35 43 47 45 44 44 45 46 49 51 52 51 49 47 46 44 42 40 39 38 37
30 31 31 30 30 31 30 29 29 29 29 28 27 27 26 26 26 26 27 28 29 30 31 33 35 36 35 31 30 32 32 32 36 43 47 46 46 46 48 48 50 51 52 51 50 48 46 44 42 41 41 40
30 30 32 33 33 33 30 29 29 30 30 30 30 30 28 27 28 28 29 28 29 30 31 32 33 34 36 35 32 31 33 33 34 37 43 48 48 48 50 50 51 52 52 51 50 48 47 46 44 42 42 42
30 30 31 32 32 30 28 27 28 30 31 31 31 30 29 30 30 30 30 29 27 27 29 31 33 34 34 35 35 34 33 33 34 36 39 44 48 50 51 52 53 53 53 52 52 50 46 43 43 43 42 42
30 30 29 28 27 27 27 28 28 29 31 31 29 28 29 32 33 31 29 27 24 24 26 28 31 33 33 33 34 36 37 35 34 36 38 41 44 48 50 51 52 54 55 54 51 46 41 41 41 39 41 45
30 29 28 28 27 28 28 29 29 30 31 31 30 30 30 31 33 32 29 26 24 24 23 23 26 29 31 32 32 33 37 39 38 37 38 40 42 45 47 48 50 53 55 56 52 44 38 35 32 32 42 50
33 32 32 32 30 29 30 30 30 31 32 32 32 32 32 31 31 31 30 28 28 27 26 25 26 27 28 30 30 31 33 38 40 40 39 40 41 43 46 47 47 49 52 55 55 51 42 30 27 35 42 42
33 33 33 33 30 29 31 31 31 31 31 32 32 32 32 31 30 30 32 32 31 31 30 30 30 29 28 28 29 30 31 34 38 41 41 41 40 40 44 46 45 44 48 52 55 55 52 42 39 42 38 32
33 34 33 34 32 30 30 30 30 31 31 31 31 31 31 32 31 31 32 33 32 31 31 30 31 31 31 29 28 29 31 33 35 39 42 43 42 40 40 42 45 45 45 48 52 53 54 52 48 44 39 37

ECMWFFLT2_850_spd_018.txt.gz
Wind_Speed
9 12 13 13 12 12 12 13 13 13 13 13 14 15 17 16 16 17 17 18 17 17 17 15 16 17 17 18 17 17 17 17 18 18 18 18 16 16 18 18 16 17 21 19 15 11 11 13 14 15 16 17
7 10 12 13 13 13 13 14 15 15 15 14 14 16 19 17 17 19 19 20 20 19 18 17 17 16 17 18 18 18 19 18 18 19 19 18 18 17 18 19 17 18 23 23 18 14 12 12 12 13 14 15
4 6 8 11 13 13 12 13 14 16 17 17 16 17 20 20 19 21 21 22 23 21 19 19 18 18 18 17 17 18 19 19 19 20 20 20 20 19 18 19 19 19 22 23 21 19 17 15 12 11 12 14
5 5 6 7 9 11 13 14 14 15 18 19 19 19 20 22 21 22 23 23 23 23 22 21 20 21 20 17 17 17 19 19 19 21 21 21 21 20 19 19 20 20 23 23 24 23 20 19 16 14 13 13
6 7 7 8 8 9 11 13 15 17 19 20 21 20 20 22 23 23 24 24 24 25 24 23 23 23 22 19 18 19 19 19 20 21 22 22 22 21 20 20 21 23 27 26 25 25 23 22 20 18 16 15
7 8 8 9 10 10 10 11 13 15 16 19 22 22 20 21 24 25 25 25 24 25 26 26 26 25 24 21 20 21 20 20 21 22 22 22 22 22 22 22 24 27 30 29 28 28 27 25 24 23 21 18
9 10 10 10 11 11 12 12 13 14 15 16 17 20 21 21 23 26 27 27 26 26 27 28 28 28 28 26 23 23 22 22 24 23 23 23 22 22 23 24 28 31 33 33 33 31 30 29 27 26 24 22
14 12 12 12 12 13 14 14 14 16 17 17 16 16 19 21 22 25 28 29 29 29 29 29 31 31 31 30 28 26 24 25 26 26 24 24 24 23 25 28 30 33 35 37 38 33 31 31 30 28 26 25
20 19 17 15 14 14 15 16 17 17 18 18 18 17 17 19 20 23 28 31 31 31 31 30 31 32 32 32 31 30 28 26 27 27 26 25 26 25 28 30 32 33 36 38 39 35 33 32 32 30 27 26
23 22 22 21 20 18 17 16 17 18 19 20 20 19 19 21 21 21 24 29 33 33 33 33 32 32 33 34 33 33 32 30 28 29 29 28 28 29 30 32 33 34 36 38 38 35 34 33 31 30 28 25
24 24 24 24 24 23 22 21 20 19 19 20 20 21 21 22 23 23 22 23 30 33 35 36 35 34 35 36 35 35 35 34 31 30 31 31 32 32 31 33 35 35 37 37 37 36 34 33 31 30 28 24
28 28 28 28 27 27 27 26 26 24 23 22 21 21 22 23 24 24 24 22 23 29 33 35 36 36 36 37 38 37 37 36 34 32 33 34 35 34 33 35 37 37 38 38 37 37 35 32 30 29 27 23
31 32 32 33 33 33 33 33 32 31 29 27 25 23 22 23 25 26 26 25 23 24 29 31 34 37 38 39 40 40 40 39 37 36 35 36 37 38 37 36 38 40 39 39 39 38 36 32 29 28 26 23
33 35 36 37 38 38 38 38 38 37 36 34 32 28 25 23 24 26 27 27 26 24 25 27 28 35 39 40 41 42 43 42 39 37 37 38 40 40 40 39 39 42 42 41 40 39 37 33 29 27 26 24
32 35 38 40 40 39 40 41 42 42 41 41 39 34 30 26 24 25 27 27 28 27 26 25 25 29 36 40 41 42 44 44 43 40 37 39 42 43 43 43 42 42 43 43 42 42 40 36 31 28 26 24
30 33 38 40 39 38 39 41 42 43 43 43 42 39 35 30 26 25 26 27 27 27 27 27 26 25 29 35 39 43 46 46 45 43 40 38 42 45 45 45 45 44 45 45 44 44 42 38 34 29 27 25
27 30 35 37 36 35 36 38 40 41 41 41 40 39 36 33 28 25 26 28 27 27 27 28 28 27 27 28 32 38 44 47 48 46 43 41 42 46 47 47 48 47 47 47 46 45 43 40 36 31 29 27
26 30 33 33 31 30 32 35 37 38 38 39 39 36 33 31 29 26 26 28 29 28 28 27 28 29 28 28 28 31 35 42 49 49 46 46 45 47 50 50 50 50 50 49 47 44 43 40 37 33 31 30
29 32 33 32 30 28 29 31 32 33 34 37 38 35 31 29 27 27 27 28 30 30 29 28 27 28 29 29 28 29 29 34 43 48 51 51 48 48 50 51 52 51 50 49 47 44 42 41 38 36 34 32
30 32 32 31 30 29 28 29 29 29 31 34 34 32 30 28 27 28 28 29 31 31 31 29 27 26 27 28 28 28 28 30 36 42 47 52 52 51 51 52 52 53 52 51 49 45 42 41 40 38 36 34
31 31 30 29 29 29 28 29 29 28 29 30 30 28 27 26 26 27 29 29 31 32 32 31 29 27 25 26 27 28 27 29 33 36 40 45 51 54 54 52 52 54 54 53 51 48 44 42 41 40 38 36
32 30 28 27 27 27 27 28 29 29 29 29 27 25 24 24 25 25 27 28 29 31 32 32 31 29 26 24 25 28 28 28 29 34 37 41 46 52 55 53 51 53 56 55 53 51 48 44 42 41 40 39
32 30 28 26 26 26 26 27 27 27 27 27 25 24 23 23 26 27 27 28 29 30 31 33 32 31 29 26 24 26 28 29 27 30 36 40 43 47 52 53 51 50 53 55 54 53 51 48 44 42 42 42
35 35 33 30 28 27 26 25 24 23 23 23 23 23 23 23 26 29 28 29 30 30 31 32 32 32 30 27 25 24 26 29 28 27 31 38 42 45 49 52 52 51 51 55 56 54 52 51 48 46 45 45
36 36 35 31 29 29 29 28 27 25 24 24 24 24 25 24 25 28 29 29 31 32 32 32 31 30 30 27 25 24 25 27 29 28 27 32 39 45 49 52 55 54 53 55 55 54 54 54 52 50 48 47
33 33 32 30 30 30 32 33 32 31 29 26 25 25 26 26 25 25 27 29 30 32 32 33 31 29 28 27 25 24 24 25 27 29 28 28 32 40 47 50 53 54 53 53 54 55 53 50 51 51 51 50
32 32 31 31 32 33 35 36 35 33 30 28 26 25 25 25 25 23 25 29 30 30 31 32 31 29 28 27 26 25 23 23 24 28 29 28 28 31 39 45 47 48 50 51 52 50 44 43 46 45 48 52
31 31 31 32 33 36 38 40 38 35 33 30 27 25 25 24 24 23 24 27 29 28 29 31 31 30 30 29 29 28 26 24 22 24 27 29 28 27 31 38 43 44 47 48 46 42 37 37 35 34 43 54
32 32 33 34 36 37 39 39 37 35 34 32 28 26 26 25 25 25 26 27 29 28 28 31 32 31 31 30 29 29 30 29 26 23 23 26 28 29 29 31 37 42 46 48 46 42 37 30 26 33 42 43
33 32 32 33 33 34 34 33 32 31 29 29 28 28 27 28 28 28 28 29 30 29 28 30 32 32 31 31 30 29 30 31 30 28 24 23 25 28 29 28 31 38 43 46 48 47 43 36 32 38 39 32
32 31 30 31 31 31 30 30 30 29 29 29 29 28 28 30 30 28 27 27 28 29 29 28 29 31 32 32 31 30 29 30 31 31 28 24 23 25 27 28 29 34 39 43 46 47 48 46 39 34 34 35

ECMWFFLT2_850_spd_021.txt.gz
Wind_Speed
5 6 7 10 11 10 12 12 11 11 11 12 12 13 15 14 15 16 17 18 17 15 15 15 15 16 17 17 16 16 18 19 18 19 21 19 17 18 18 17 17 17 21 21 14 14 12 9 16 19 19 19
4 5 6 7 9 9 11 12 12 12 12 11 12 13 15 16 16 16 17 19 17 16 16 16 16 15 15 17 17 17 16 19 19 19 20 20 19 19 18 17 18 17 21 24 16 14 14 9 14 17 17 18
5 5 6 6 7 7 7 10 12 13 13 13 13 13 15 16 17 17 17 19 19 19 18 18 18 16 16 16 17 18 17 18 19 19 19 21 21 20 19 18 18 18 21 24 18 16 16 12 13 16 17 17
7 6 6 6 7 9 7 7 9 12 14 14 15 15 16 16 17 18 19 20 20 21 22 21 20 20 20 19 18 18 18 19 20 20 20 21 22 20 19 19 18 19 22 24 21 18 20 16 14 14 16 17
9 8 7 7 7 9 9 9 7 8 10 11 14 16 18 19 19 20 21 22 22 22 23 24 24 23 22 22 20 18 17 18 19 21 22 21 22 21 20 20 20 21 24 25 24 22 21 19 17 15 16 16
11 10 8 8 9 9 11 11 11 11 11 10 11 13 16 18 20 22 23 23 24 23 23 24 26 26 25 25 24 22 19 18 18 20 23 22 21 22 21 21 22 23 25 27 26 24 23 20 18 18 17 15
12 12 11 11 10 11 11 12 12 13 14 14 14 14 14 14 15 19 23 25 25 26 24 23 25 27 27 26 26 26 23 21 20 20 22 22 21 23 23 23 24 25 27 29 30 28 26 25 22 20 19 18
13 13 13 13 13 12 12 13 13 13 14 15 16 17 17 17 16 14 17 21 25 27 27 25 24 25 26 27 28 28 27 25 25 23 23 23 23 25 26 25 26 27 30 32 34 32 29 29 29 26 23 22
15 15 14 14 14 14 14 14 14 15 15 15 16 18 19 20 20 19 17 17 20 24 28 29 26 24 24 28 30 29 29 30 29 29 26 25 26 27 27 26 25 29 32 34 36 33 30 30 31 30 28 26
20 18 16 16 16 16 15 15 15 15 16 17 18 20 21 22 21 22 22 21 19 20 23 27 28 27 25 27 31 32 33 34 33 32 29 28 29 29 29 28 26 28 33 35 35 33 31 30 31 32 31 30
24 23 22 22 21 20 19 18 17 17 17 18 20 22 24 25 25 24 24 24 23 22 21 23 25 27 27 28 31 33 35 37 36 35 32 31 30 31 32 31 28 29 32 34 35 34 33 32 31 32 32 32
29 28 28 28 28 27 27 25 23 22 21 21 21 23 26 28 29 29 28 27 26 26 24 24 24 25 26 28 31 32 34 37 38 38 35 33 32 32 34 34 31 30 33 34 35 35 35 34 33 32 32 32
34 34 34 34 34 34 34 33 31 30 29 28 27 27 29 31 32 33 33 32 30 29 27 26 26 27 26 26 28 31 33 36 38 39 38 36 34 33 35 37 34 33 34 35 36 37 37 36 34 34 33 32
37 37 38 38 39 39 39 38 36 36 36 36 36 35 35 36 37 38 37 36 35 33 30 29 27 27 29 27 26 27 31 34 37 38 38 38 38 36 36 38 39 37 37 37 38 38 38 37 36 35 34 33
38 38 39 39 39 40 39 38 37 37 38 40 41 42 42 42 42 42 41 39 38 36 34 32 30 28 28 29 28 27 28 30 34 38 39 39 41 41 39 38 40 41 41 41 40 40 40 39 38 37 35 34
38 38 38 39 38 38 37 36 36 37 39 41 42 44 46 47 46 45 43 41 39 38 37 36 34 31 28 27 29 30 29 28 30 34 38 41 43 43 43 41 40 42 45 45 43 42 42 41 40 39 37 36
36 36 36 36 36 36 36 36 36 38 39 40 42 43 45 47 48 47 44 41 39 38 37 38 37 35 32 28 27 29 31 30 29 29 33 39 43 45 44 43 43 42 45 48 48 45 44 43 42 41 39 38
35 34 34 34 34 34 35 35 35 36 36 37 38 40 42 43 44 45 43 39 37 36 36 37 38 38 36 32 29 28 29 31 31 29 29 31 37 44 46 47 47 45 44 47 50 49 46 45 44 43 41 39
34 34 33 33 33 33 32 32 33 33 32 33 33 34 36 36 36 38 38 35 33 34 34 36 37 38 38 36 32 29 28 29 30 30 30 29 29 35 43 47 49 48 45 46 49 51 50 47 46 45 43 40
31 31 31 31 32 31 31 30 30 29 29 30 31 31 32 30 28 29 30 30 29 30 31 33 35 35 36 36 35 32 28 28 30 29 29 30 28 30 35 41 47 50 49 47 48 51 52 50 48 47 46 43
29 29 30 30 30 30 29 28 28 27 26 26 27 27 28 26 22 22 25 25 25 26 27 29 31 32 33 34 35 34 31 28 28 29 29 29 29 30 32 36 43 51 52 51 50 50 52 53 52 50 48 45
28 28 29 29 29 29 28 28 27 27 26 24 23 23 23 21 19 19 21 23 23 25 27 28 29 30 30 31 32 33 33 30 28 28 29 29 29 29 32 35 40 46 51 53 54 53 53 53 53 52 51 48
26 27 28 28 28 28 28 28 27 27 27 26 25 23 22 22 21 20 20 21 22 25 28 29 30 30 29 29 29 31 32 32 30 29 29 30 29 28 29 33 38 42 46 51 55 57 56 56 55 54 52 51
26 27 29 28 28 28 28 29 29 29 28 28 28 28 27 27 27 26 25 23 22 23 26 29 31 31 30 29 28 29 29 30 30 30 29 30 30 29 28 30 34 38 44 49 54 57 58 57 56 56 55 54
27 29 30 29 29 30 31 31 32 32 31 30 31 31 31 31 30 29 28 26 23 21 24 28 30 31 30 28 27 27 27 27 28 28 29 29 29 29 29 29 31 34 38 44 48 52 56 57 57 57 56 55
30 31 31 30 31 33 34 34 33 33 32 31 31 32 32 32 30 29 29 28 25 22 22 25 29 30 30 27 26 27 26 26 26 27 27 28 28 28 28 29 29 29 32 37 43 48 51 52 54 57 57 56
31 33 32 33 35 36 35 34 32 30 30 30 30 31 29 26 24 25 26 26 26 24 22 24 27 28 29 27 25 26 27 26 26 26 26 27 27 27 28 29 28 26 27 31 38 43 41 41 46 49 53 58
31 34 35 37 36 36 34 32 32 31 30 30 29 29 27 23 21 23 24 24 25 26 25 25 26 27 28 28 26 25 27 27 26 25 25 26 27 27 27 29 29 26 24 26 31 35 32 31 34 36 45 57
32 35 36 36 34 33 32 32 33 34 33 32 30 29 27 25 25 24 23 23 24 26 26 25 26 26 27 26 26 25 26 27 27 25 24 25 26 27 27 27 28 26 24 24 27 33 32 26 23 30 41 47
33 35 34 33 31 29 30 32 33 33 35 35 32 29 27 27 27 26 24 23 22 22 22 23 24 25 25 25 25 25 25 26 26 26 25 24 24 27 28 27 28 28 25 23 24 31 37 32 25 29 35 33
35 35 33 31 30 29 29 31 32 34 36 35 33 30 29 29 29 28 27 26 22 18 17 20 22 24 24 24 25 25 25 26 26 26 26 25 23 24 27 27 28 28 26 24 23 26 34 38 35 30 28 28